Year,Month,Day,Hour,Minute,Value (Times are PST for temperature in C)
2016,08,20,00,00,20.20
2016,08,20,00,01,20.20
2016,08,20,00,02,20.20
2016,08,20,00,03,20.20
2016,08,20,00,04,20.20
2016,08,20,00,05,20.10
2016,08,20,00,06,20.10
2016,08,20,00,07,20.10
2016,08,20,00,08,20.10
2016,08,20,00,09,20.00
2016,08,20,00,10,20.00
2016,08,20,00,11,20.00
2016,08,20,00,12,20.00
2016,08,20,00,13,19.90
2016,08,20,00,14,19.90
2016,08,20,00,15,19.90
2016,08,20,00,16,19.90
2016,08,20,00,17,19.90
2016,08,20,00,18,19.90
2016,08,20,00,19,19.80
2016,08,20,00,20,19.80
2016,08,20,00,21,19.80
2016,08,20,00,22,19.80
2016,08,20,00,23,19.80
2016,08,20,00,24,19.80
2016,08,20,00,25,19.70
2016,08,20,00,26,19.70
2016,08,20,00,27,19.70
2016,08,20,00,28,19.70
2016,08,20,00,29,19.70
2016,08,20,00,30,19.70
2016,08,20,00,31,19.70
2016,08,20,00,32,19.70
2016,08,20,00,33,19.60
2016,08,20,00,34,19.60
2016,08,20,00,35,19.60
2016,08,20,00,36,19.60
2016,08,20,00,37,19.60
2016,08,20,00,38,19.60
2016,08,20,00,39,19.60
2016,08,20,00,40,19.50
2016,08,20,00,41,19.50
2016,08,20,00,42,19.50
2016,08,20,00,43,19.50
2016,08,20,00,44,19.50
2016,08,20,00,45,19.40
2016,08,20,00,46,19.40
2016,08,20,00,47,19.40
2016,08,20,00,48,19.40
2016,08,20,00,49,19.40
2016,08,20,00,50,19.30
2016,08,20,00,51,19.30
2016,08,20,00,52,19.30
2016,08,20,00,53,19.30
2016,08,20,00,54,19.30
2016,08,20,00,55,19.30
2016,08,20,00,56,19.30
2016,08,20,00,57,19.30
2016,08,20,00,58,19.30
2016,08,20,00,59,19.20
2016,08,20,01,00,19.20
2016,08,20,01,01,19.20
2016,08,20,01,02,19.20
2016,08,20,01,03,19.20
2016,08,20,01,04,19.20
2016,08,20,01,05,19.20
2016,08,20,01,06,19.20
2016,08,20,01,07,19.20
2016,08,20,01,08,19.20
2016,08,20,01,09,19.20
2016,08,20,01,10,19.20
2016,08,20,01,11,19.20
2016,08,20,01,12,19.20
2016,08,20,01,13,19.20
2016,08,20,01,14,19.20
2016,08,20,01,15,19.20
2016,08,20,01,16,19.20
2016,08,20,01,17,19.20
2016,08,20,01,18,19.20
2016,08,20,01,19,19.20
2016,08,20,01,20,19.20
2016,08,20,01,21,19.20
2016,08,20,01,22,19.20
2016,08,20,01,23,19.20
2016,08,20,01,24,19.20
2016,08,20,01,25,19.20
2016,08,20,01,26,19.20
2016,08,20,01,27,19.20
2016,08,20,01,28,19.20
2016,08,20,01,29,19.20
2016,08,20,01,30,19.20
2016,08,20,01,31,19.20
2016,08,20,01,32,19.20
2016,08,20,01,33,19.20
2016,08,20,01,34,19.20
2016,08,20,01,35,19.20
2016,08,20,01,36,19.20
2016,08,20,01,37,19.20
2016,08,20,01,38,19.20
2016,08,20,01,39,19.20
2016,08,20,01,40,19.20
2016,08,20,01,41,19.20
2016,08,20,01,42,19.20
2016,08,20,01,43,19.20
2016,08,20,01,44,19.20
2016,08,20,01,45,19.20
2016,08,20,01,46,19.20
2016,08,20,01,47,19.20
2016,08,20,01,48,19.20
2016,08,20,01,49,19.20
2016,08,20,01,50,19.20
2016,08,20,01,51,19.20
2016,08,20,01,52,19.30
2016,08,20,01,53,19.30
2016,08,20,01,54,19.30
2016,08,20,01,55,19.30
2016,08,20,01,56,19.30
2016,08,20,01,57,19.30
2016,08,20,01,58,19.30
2016,08,20,01,59,19.30
2016,08,20,02,00,19.30
2016,08,20,02,01,19.30
2016,08,20,02,02,19.30
2016,08,20,02,03,19.30
2016,08,20,02,04,19.30
2016,08,20,02,05,19.30
2016,08,20,02,06,19.30
2016,08,20,02,07,19.30
2016,08,20,02,08,19.30
2016,08,20,02,09,19.30
2016,08,20,02,10,19.30
2016,08,20,02,11,19.30
2016,08,20,02,12,19.30
2016,08,20,02,13,19.30
2016,08,20,02,14,19.30
2016,08,20,02,15,19.40
2016,08,20,02,16,19.40
2016,08,20,02,17,19.40
2016,08,20,02,18,19.40
2016,08,20,02,19,19.40
2016,08,20,02,20,19.40
2016,08,20,02,21,19.40
2016,08,20,02,22,19.40
2016,08,20,02,23,19.40
2016,08,20,02,24,19.40
2016,08,20,02,25,19.40
2016,08,20,02,26,19.50
2016,08,20,02,27,19.50
2016,08,20,02,28,19.50
2016,08,20,02,29,19.50
2016,08,20,02,30,19.60
2016,08,20,02,31,19.60
2016,08,20,02,32,19.60
2016,08,20,02,33,19.60
2016,08,20,02,34,19.60
2016,08,20,02,35,19.60
2016,08,20,02,36,19.70
2016,08,20,02,37,19.70
2016,08,20,02,38,19.70
2016,08,20,02,39,19.70
2016,08,20,02,40,19.70
2016,08,20,02,41,19.70
2016,08,20,02,42,19.80
2016,08,20,02,43,19.80
2016,08,20,02,44,19.80
2016,08,20,02,45,19.80
2016,08,20,02,46,19.80
2016,08,20,02,47,19.80
2016,08,20,02,48,19.80
2016,08,20,02,49,19.80
2016,08,20,02,50,19.80
2016,08,20,02,51,19.80
2016,08,20,02,52,19.80
2016,08,20,02,53,19.80
2016,08,20,02,54,19.80
2016,08,20,02,55,19.80
2016,08,20,02,56,19.80
2016,08,20,02,57,19.80
2016,08,20,02,58,19.80
2016,08,20,02,59,19.80
2016,08,20,03,00,19.80
2016,08,20,03,01,19.80
2016,08,20,03,02,19.80
2016,08,20,03,03,19.80
2016,08,20,03,04,19.80
2016,08,20,03,05,19.80
2016,08,20,03,06,19.80
2016,08,20,03,07,19.80
2016,08,20,03,08,19.80
2016,08,20,03,09,19.80
2016,08,20,03,10,19.80
2016,08,20,03,11,19.80
2016,08,20,03,12,19.80
2016,08,20,03,13,19.80
2016,08,20,03,14,19.80
2016,08,20,03,15,19.80
2016,08,20,03,16,19.80
2016,08,20,03,17,19.80
2016,08,20,03,18,19.80
2016,08,20,03,19,19.80
2016,08,20,03,20,19.80
2016,08,20,03,21,19.80
2016,08,20,03,22,19.80
2016,08,20,03,23,19.80
2016,08,20,03,24,19.70
2016,08,20,03,25,19.70
2016,08,20,03,26,19.70
2016,08,20,03,27,19.70
2016,08,20,03,28,19.70
2016,08,20,03,29,19.70
2016,08,20,03,30,19.70
2016,08,20,03,31,19.70
2016,08,20,03,32,19.70
2016,08,20,03,33,19.70
2016,08,20,03,34,19.70
2016,08,20,03,35,19.70
2016,08,20,03,36,19.60
2016,08,20,03,37,19.60
2016,08,20,03,38,19.60
2016,08,20,03,39,19.60
2016,08,20,03,40,19.60
2016,08,20,03,41,19.60
2016,08,20,03,42,19.60
2016,08,20,03,43,19.60
2016,08,20,03,44,19.60
2016,08,20,03,45,19.60
2016,08,20,03,46,19.60
2016,08,20,03,47,19.60
2016,08,20,03,48,19.60
2016,08,20,03,49,19.60
2016,08,20,03,50,19.60
2016,08,20,03,51,19.60
2016,08,20,03,52,19.60
2016,08,20,03,53,19.50
2016,08,20,03,54,19.50
2016,08,20,03,55,19.50
2016,08,20,03,56,19.50
2016,08,20,03,57,19.50
2016,08,20,03,58,19.40
2016,08,20,03,59,19.40
2016,08,20,04,00,19.40
2016,08,20,04,01,19.40
2016,08,20,04,02,19.30
2016,08,20,04,03,19.30
2016,08,20,04,04,19.30
2016,08,20,04,05,19.20
2016,08,20,04,06,19.20
2016,08,20,04,07,19.20
2016,08,20,04,08,19.20
2016,08,20,04,09,19.20
2016,08,20,04,10,19.10
2016,08,20,04,11,19.10
2016,08,20,04,12,19.10
2016,08,20,04,13,19.10
2016,08,20,04,14,19.10
2016,08,20,04,15,19.00
2016,08,20,04,16,19.00
2016,08,20,04,17,19.00
2016,08,20,04,18,19.00
2016,08,20,04,19,18.90
2016,08,20,04,20,18.90
2016,08,20,04,21,18.90
2016,08,20,04,22,18.90
2016,08,20,04,23,18.90
2016,08,20,04,24,18.90
2016,08,20,04,25,18.80
2016,08,20,04,26,18.80
2016,08,20,04,27,18.80
2016,08,20,04,28,18.80
2016,08,20,04,29,18.80
2016,08,20,04,30,18.80
2016,08,20,04,31,18.80
2016,08,20,04,32,18.80
2016,08,20,04,33,18.80
2016,08,20,04,34,18.70
2016,08,20,04,35,18.70
2016,08,20,04,36,18.70
2016,08,20,04,37,18.70
2016,08,20,04,38,18.70
2016,08,20,04,39,18.70
2016,08,20,04,40,18.70
2016,08,20,04,41,18.70
2016,08,20,04,42,18.70
2016,08,20,04,43,18.70
2016,08,20,04,44,18.60
2016,08,20,04,45,18.60
2016,08,20,04,46,18.60
2016,08,20,04,47,18.60
2016,08,20,04,48,18.60
2016,08,20,04,49,18.60
2016,08,20,04,50,18.60
2016,08,20,04,51,18.60
2016,08,20,04,52,18.50
2016,08,20,04,53,18.50
2016,08,20,04,54,18.50
2016,08,20,04,55,18.50
2016,08,20,04,56,18.50
2016,08,20,04,57,18.40
2016,08,20,04,58,18.40
2016,08,20,04,59,18.40
2016,08,20,05,00,18.40
2016,08,20,05,01,18.40
2016,08,20,05,02,18.30
2016,08,20,05,03,18.30
2016,08,20,05,04,18.30
2016,08,20,05,05,18.30
2016,08,20,05,06,18.30
2016,08,20,05,07,18.30
2016,08,20,05,08,18.20
2016,08,20,05,09,18.20
2016,08,20,05,10,18.20
2016,08,20,05,11,18.20
2016,08,20,05,12,18.10
2016,08,20,05,13,18.10
2016,08,20,05,14,18.10
2016,08,20,05,15,18.10
2016,08,20,05,16,18.10
2016,08,20,05,17,18.10
2016,08,20,05,18,18.00
2016,08,20,05,19,18.00
2016,08,20,05,20,18.00
2016,08,20,05,21,18.00
2016,08,20,05,22,18.00
2016,08,20,05,23,18.00
2016,08,20,05,24,17.90
2016,08,20,05,25,17.90
2016,08,20,05,26,17.90
2016,08,20,05,27,17.90
2016,08,20,05,28,17.90
2016,08,20,05,29,17.90
2016,08,20,05,30,17.80
2016,08,20,05,31,17.80
2016,08,20,05,32,17.80
2016,08,20,05,33,17.80
2016,08,20,05,34,17.80
2016,08,20,05,35,17.80
2016,08,20,05,36,17.80
2016,08,20,05,37,17.70
2016,08,20,05,38,17.70
2016,08,20,05,39,17.70
2016,08,20,05,40,17.70
2016,08,20,05,41,17.70
2016,08,20,05,42,17.70
2016,08,20,05,43,17.70
2016,08,20,05,44,17.60
2016,08,20,05,45,17.60
2016,08,20,05,46,17.60
2016,08,20,05,47,17.60
2016,08,20,05,48,17.60
2016,08,20,05,49,17.60
2016,08,20,05,50,17.50
2016,08,20,05,51,17.50
2016,08,20,05,52,17.50
2016,08,20,05,53,17.50
2016,08,20,05,54,17.50
2016,08,20,05,55,17.40
2016,08,20,05,56,17.40
2016,08,20,05,57,17.40
2016,08,20,05,58,17.40
2016,08,20,05,59,17.40
2016,08,20,06,00,17.40
2016,08,20,06,01,17.40
2016,08,20,06,02,17.40
2016,08,20,06,03,17.40
2016,08,20,06,04,17.30
2016,08,20,06,05,17.30
2016,08,20,06,06,17.30
2016,08,20,06,07,17.30
2016,08,20,06,08,17.30
2016,08,20,06,09,17.30
2016,08,20,06,10,17.30
2016,08,20,06,11,17.20
2016,08,20,06,12,17.20
2016,08,20,06,13,17.20
2016,08,20,06,14,17.20
2016,08,20,06,15,17.20
2016,08,20,06,16,17.20
2016,08,20,06,17,17.20
2016,08,20,06,18,17.20
2016,08,20,06,19,17.20
2016,08,20,06,20,17.10
2016,08,20,06,21,17.10
2016,08,20,06,22,17.20
2016,08,20,06,23,17.20
2016,08,20,06,24,17.20
2016,08,20,06,25,17.20
2016,08,20,06,26,17.20
2016,08,20,06,27,17.30
2016,08,20,06,28,17.30
2016,08,20,06,29,17.30
2016,08,20,06,30,17.30
2016,08,20,06,31,17.30
2016,08,20,06,32,17.30
2016,08,20,06,33,17.30
2016,08,20,06,34,17.30
2016,08,20,06,35,17.30
2016,08,20,06,36,17.30
2016,08,20,06,37,17.40
2016,08,20,06,38,17.40
2016,08,20,06,39,17.40
2016,08,20,06,40,17.40
2016,08,20,06,41,17.50
2016,08,20,06,42,17.50
2016,08,20,06,43,17.50
2016,08,20,06,44,17.60
2016,08,20,06,45,17.60
2016,08,20,06,46,17.60
2016,08,20,06,47,17.60
2016,08,20,06,48,17.70
2016,08,20,06,49,17.70
2016,08,20,06,50,17.70
2016,08,20,06,51,17.80
2016,08,20,06,52,17.90
2016,08,20,06,53,17.90
2016,08,20,06,54,17.90
2016,08,20,06,55,18.00
2016,08,20,06,56,18.10
2016,08,20,06,57,18.10
2016,08,20,06,58,18.10
2016,08,20,06,59,18.20
2016,08,20,07,00,18.20
2016,08,20,07,01,18.20
2016,08,20,07,02,18.30
2016,08,20,07,03,18.30
2016,08,20,07,04,18.30
2016,08,20,07,05,18.30
2016,08,20,07,06,18.30
2016,08,20,07,07,18.30
2016,08,20,07,08,18.40
2016,08,20,07,09,18.40
2016,08,20,07,10,18.40
2016,08,20,07,11,18.50
2016,08,20,07,12,18.50
2016,08,20,07,13,18.50
2016,08,20,07,14,18.60
2016,08,20,07,15,18.60
2016,08,20,07,16,18.70
2016,08,20,07,17,18.70
2016,08,20,07,18,18.70
2016,08,20,07,19,18.70
2016,08,20,07,20,18.80
2016,08,20,07,21,18.80
2016,08,20,07,22,18.80
2016,08,20,07,23,18.80
2016,08,20,07,24,18.80
2016,08,20,07,25,18.80
2016,08,20,07,26,18.90
2016,08,20,07,27,18.90
2016,08,20,07,28,18.90
2016,08,20,07,29,19.00
2016,08,20,07,30,19.00
2016,08,20,07,31,19.10
2016,08,20,07,32,19.10
2016,08,20,07,33,19.10
2016,08,20,07,34,19.10
2016,08,20,07,35,19.20
2016,08,20,07,36,19.20
2016,08,20,07,37,19.30
2016,08,20,07,38,19.30
2016,08,20,07,39,19.30
2016,08,20,07,40,19.30
2016,08,20,07,41,19.40
2016,08,20,07,42,19.50
2016,08,20,07,43,19.60
2016,08,20,07,44,19.60
2016,08,20,07,45,19.70
2016,08,20,07,46,19.70
2016,08,20,07,47,19.70
2016,08,20,07,48,19.80
2016,08,20,07,49,19.80
2016,08,20,07,50,19.80
2016,08,20,07,51,19.80
2016,08,20,07,52,20.00
2016,08,20,07,53,20.10
2016,08,20,07,54,20.20
2016,08,20,07,55,20.20
2016,08,20,07,56,20.30
2016,08,20,07,57,20.30
2016,08,20,07,58,20.40
2016,08,20,07,59,20.40
2016,08,20,08,00,20.40
2016,08,20,08,01,20.50
2016,08,20,08,02,20.50
2016,08,20,08,03,20.60
2016,08,20,08,04,20.70
2016,08,20,08,05,20.70
2016,08,20,08,06,20.80
2016,08,20,08,07,20.80
2016,08,20,08,08,21.00
2016,08,20,08,09,21.10
2016,08,20,08,10,21.10
2016,08,20,08,11,21.20
2016,08,20,08,12,21.30
2016,08,20,08,13,21.40
2016,08,20,08,14,21.60
2016,08,20,08,15,21.70
2016,08,20,08,16,21.70
2016,08,20,08,17,21.70
2016,08,20,08,18,21.70
2016,08,20,08,19,21.70
2016,08,20,08,20,21.70
2016,08,20,08,21,21.70
2016,08,20,08,22,21.70
2016,08,20,08,23,21.80
2016,08,20,08,24,21.80
2016,08,20,08,25,21.80
2016,08,20,08,26,21.90
2016,08,20,08,27,22.00
2016,08,20,08,28,22.10
2016,08,20,08,29,22.10
2016,08,20,08,30,22.20
2016,08,20,08,31,22.20
2016,08,20,08,32,22.20
2016,08,20,08,33,22.30
2016,08,20,08,34,22.30
2016,08,20,08,35,22.30
2016,08,20,08,36,22.40
2016,08,20,08,37,22.40
2016,08,20,08,38,22.40
2016,08,20,08,39,22.40
2016,08,20,08,40,22.50
2016,08,20,08,41,22.50
2016,08,20,08,42,22.50
2016,08,20,08,43,22.60
2016,08,20,08,44,22.60
2016,08,20,08,45,22.60
2016,08,20,08,46,22.60
2016,08,20,08,47,22.60
2016,08,20,08,48,22.60
2016,08,20,08,49,22.70
2016,08,20,08,50,22.70
2016,08,20,08,51,22.80
2016,08,20,08,52,22.80
2016,08,20,08,53,22.80
2016,08,20,08,54,22.90
2016,08,20,08,55,23.00
2016,08,20,08,56,23.00
2016,08,20,08,57,23.00
2016,08,20,08,58,23.00
2016,08,20,08,59,23.00
2016,08,20,09,00,23.00
2016,08,20,09,01,23.00
2016,08,20,09,02,23.10
2016,08,20,09,03,23.10
2016,08,20,09,04,23.20
2016,08,20,09,05,23.30
2016,08,20,09,06,23.40
2016,08,20,09,07,23.40
2016,08,20,09,08,23.50
2016,08,20,09,09,23.50
2016,08,20,09,10,23.60
2016,08,20,09,11,23.60
2016,08,20,09,12,23.60
2016,08,20,09,13,23.70
2016,08,20,09,14,23.80
2016,08,20,09,15,23.80
2016,08,20,09,16,23.80
2016,08,20,09,17,23.70
2016,08,20,09,18,23.70
2016,08,20,09,19,23.70
2016,08,20,09,20,23.70
2016,08,20,09,21,23.70
2016,08,20,09,22,23.80
2016,08,20,09,23,23.80
2016,08,20,09,24,23.90
2016,08,20,09,25,24.10
2016,08,20,09,26,24.20
2016,08,20,09,27,24.20
2016,08,20,09,28,24.20
2016,08,20,09,29,24.20
2016,08,20,09,30,24.20
2016,08,20,09,31,24.20
2016,08,20,09,32,24.30
2016,08,20,09,33,24.30
2016,08,20,09,34,24.30
2016,08,20,09,35,24.30
2016,08,20,09,36,24.20
2016,08,20,09,37,24.20
2016,08,20,09,38,24.20
2016,08,20,09,39,24.20
2016,08,20,09,40,24.20
2016,08,20,09,41,24.20
2016,08,20,09,42,24.20
2016,08,20,09,43,24.20
2016,08,20,09,44,24.30
2016,08,20,09,45,24.40
2016,08,20,09,46,24.50
2016,08,20,09,47,24.60
2016,08,20,09,48,24.60
2016,08,20,09,49,24.70
2016,08,20,09,50,24.70
2016,08,20,09,51,24.80
2016,08,20,09,52,24.70
2016,08,20,09,53,24.70
2016,08,20,09,54,24.80
2016,08,20,09,55,24.80
2016,08,20,09,56,24.80
2016,08,20,09,57,24.70
2016,08,20,09,58,24.60
2016,08,20,09,59,24.60
2016,08,20,10,00,24.60
2016,08,20,10,01,24.70
2016,08,20,10,02,24.70
2016,08,20,10,03,24.80
2016,08,20,10,04,24.80
2016,08,20,10,05,24.80
2016,08,20,10,06,24.80
2016,08,20,10,07,24.80
2016,08,20,10,08,24.80
2016,08,20,10,09,24.80
2016,08,20,10,10,24.80
2016,08,20,10,11,24.80
2016,08,20,10,12,24.80
2016,08,20,10,13,24.80
2016,08,20,10,14,24.80
2016,08,20,10,15,24.90
2016,08,20,10,16,24.90
2016,08,20,10,17,24.90
2016,08,20,10,18,24.90
2016,08,20,10,19,24.90
2016,08,20,10,20,24.90
2016,08,20,10,21,24.80
2016,08,20,10,22,24.80
2016,08,20,10,23,24.70
2016,08,20,10,24,24.70
2016,08,20,10,25,24.70
2016,08,20,10,26,24.80
2016,08,20,10,27,24.80
2016,08,20,10,28,24.90
2016,08,20,10,29,24.90
2016,08,20,10,30,24.90
2016,08,20,10,31,24.80
2016,08,20,10,32,24.80
2016,08,20,10,33,24.80
2016,08,20,10,34,24.90
2016,08,20,10,35,24.90
2016,08,20,10,36,25.00
2016,08,20,10,37,25.20
2016,08,20,10,38,25.30
2016,08,20,10,39,25.30
2016,08,20,10,40,25.30
2016,08,20,10,41,25.20
2016,08,20,10,42,25.20
2016,08,20,10,43,25.20
2016,08,20,10,44,25.20
2016,08,20,10,45,25.20
2016,08,20,10,46,25.20
2016,08,20,10,47,25.20
2016,08,20,10,48,25.20
2016,08,20,10,49,25.20
2016,08,20,10,50,25.30
2016,08,20,10,51,25.50
2016,08,20,10,52,25.50
2016,08,20,10,53,25.50
2016,08,20,10,54,25.50
2016,08,20,10,55,25.60
2016,08,20,10,56,25.60
2016,08,20,10,57,25.70
2016,08,20,10,58,25.70
2016,08,20,10,59,25.70
2016,08,20,11,00,25.60
2016,08,20,11,01,25.60
2016,08,20,11,02,25.70
2016,08,20,11,03,25.70
2016,08,20,11,04,25.70
2016,08,20,11,05,25.70
2016,08,20,11,06,25.70
2016,08,20,11,07,25.70
2016,08,20,11,08,25.70
2016,08,20,11,09,25.70
2016,08,20,11,10,25.70
2016,08,20,11,11,25.70
2016,08,20,11,12,25.60
2016,08,20,11,13,25.60
2016,08,20,11,14,25.40
2016,08,20,11,15,25.30
2016,08,20,11,16,25.30
2016,08,20,11,17,25.30
2016,08,20,11,18,25.20
2016,08,20,11,19,25.30
2016,08,20,11,20,25.20
2016,08,20,11,21,25.20
2016,08,20,11,22,25.10
2016,08,20,11,23,25.10
2016,08,20,11,24,25.10
2016,08,20,11,25,25.10
2016,08,20,11,26,25.10
2016,08,20,11,27,25.10
2016,08,20,11,28,25.20
2016,08,20,11,29,25.30
2016,08,20,11,30,25.30
2016,08,20,11,31,25.30
2016,08,20,11,32,25.20
2016,08,20,11,33,25.10
2016,08,20,11,34,25.00
2016,08,20,11,35,25.00
2016,08,20,11,36,24.90
2016,08,20,11,37,25.00
2016,08,20,11,38,25.00
2016,08,20,11,39,25.00
2016,08,20,11,40,25.10
2016,08,20,11,41,25.20
2016,08,20,11,42,25.30
2016,08,20,11,43,25.30
2016,08,20,11,44,25.30
2016,08,20,11,45,25.40
2016,08,20,11,46,25.60
2016,08,20,11,47,25.90
2016,08,20,11,48,26.20
2016,08,20,11,49,26.30
2016,08,20,11,50,26.30
2016,08,20,11,51,26.10
2016,08,20,11,52,25.80
2016,08,20,11,53,25.50
2016,08,20,11,54,25.40
2016,08,20,11,55,25.40
2016,08,20,11,56,25.40
2016,08,20,11,57,25.60
2016,08,20,11,58,25.70
2016,08,20,11,59,25.80
2016,08,20,12,00,25.70
2016,08,20,12,01,25.70
2016,08,20,12,02,25.80
2016,08,20,12,03,25.80
2016,08,20,12,04,25.90
2016,08,20,12,05,26.10
2016,08,20,12,06,26.30
2016,08,20,12,07,26.50
2016,08,20,12,08,26.40
2016,08,20,12,09,26.40
2016,08,20,12,10,26.40
2016,08,20,12,11,26.30
2016,08,20,12,12,26.30
2016,08,20,12,13,26.30
2016,08,20,12,14,26.30
2016,08,20,12,15,26.30
2016,08,20,12,16,26.30
2016,08,20,12,17,26.20
2016,08,20,12,18,26.20
2016,08,20,12,19,26.00
2016,08,20,12,20,26.00
2016,08,20,12,21,26.00
2016,08,20,12,22,26.10
2016,08,20,12,23,26.20
2016,08,20,12,24,26.20
2016,08,20,12,25,26.30
2016,08,20,12,26,26.40
2016,08,20,12,27,26.40
2016,08,20,12,28,26.30
2016,08,20,12,29,26.20
2016,08,20,12,30,26.00
2016,08,20,12,31,26.00
2016,08,20,12,32,26.00
2016,08,20,12,33,26.10
2016,08,20,12,34,26.10
2016,08,20,12,35,26.20
2016,08,20,12,36,26.20
2016,08,20,12,37,26.30
2016,08,20,12,38,26.30
2016,08,20,12,39,26.40
2016,08,20,12,40,26.40
2016,08,20,12,41,26.40
2016,08,20,12,42,26.50
2016,08,20,12,43,26.50
2016,08,20,12,44,26.60
2016,08,20,12,45,26.50
2016,08,20,12,46,26.50
2016,08,20,12,47,26.40
2016,08,20,12,48,26.50
2016,08,20,12,49,26.60
2016,08,20,12,50,26.60
2016,08,20,12,51,26.50
2016,08,20,12,52,26.40
2016,08,20,12,53,26.30
2016,08,20,12,54,26.20
2016,08,20,12,55,26.00
2016,08,20,12,56,25.90
2016,08,20,12,57,25.90
2016,08,20,12,58,25.90
2016,08,20,12,59,26.00
2016,08,20,13,00,26.00
2016,08,20,13,01,26.00
2016,08,20,13,02,26.20
2016,08,20,13,03,26.30
2016,08,20,13,04,26.40
2016,08,20,13,05,26.50
2016,08,20,13,06,26.50
2016,08,20,13,07,26.40
2016,08,20,13,08,26.40
2016,08,20,13,09,26.40
2016,08,20,13,10,26.40
2016,08,20,13,11,26.40
2016,08,20,13,12,26.40
2016,08,20,13,13,26.30
2016,08,20,13,14,26.20
2016,08,20,13,15,26.20
2016,08,20,13,16,26.30
2016,08,20,13,17,26.40
2016,08,20,13,18,26.50
2016,08,20,13,19,26.70
2016,08,20,13,20,26.90
2016,08,20,13,21,26.90
2016,08,20,13,22,26.80
2016,08,20,13,23,26.60
2016,08,20,13,24,26.60
2016,08,20,13,25,26.60
2016,08,20,13,26,26.60
2016,08,20,13,27,26.60
2016,08,20,13,28,26.70
2016,08,20,13,29,26.80
2016,08,20,13,30,26.90
2016,08,20,13,31,26.90
2016,08,20,13,32,27.00
2016,08,20,13,33,27.10
2016,08,20,13,34,27.20
2016,08,20,13,35,27.30
2016,08,20,13,36,27.50
2016,08,20,13,37,27.60
2016,08,20,13,38,27.70
2016,08,20,13,39,27.70
2016,08,20,13,40,27.70
2016,08,20,13,41,27.50
2016,08,20,13,42,27.40
2016,08,20,13,43,27.20
2016,08,20,13,44,27.00
2016,08,20,13,45,26.80
2016,08,20,13,46,26.60
2016,08,20,13,47,26.50
2016,08,20,13,48,26.40
2016,08,20,13,49,26.30
2016,08,20,13,50,26.20
2016,08,20,13,51,26.10
2016,08,20,13,52,26.00
2016,08,20,13,53,25.80
2016,08,20,13,54,25.90
2016,08,20,13,55,26.00
2016,08,20,13,56,26.10
2016,08,20,13,57,26.10
2016,08,20,13,58,26.10
2016,08,20,13,59,26.00
2016,08,20,14,00,25.90
2016,08,20,14,01,25.90
2016,08,20,14,02,25.80
2016,08,20,14,03,25.80
2016,08,20,14,04,25.80
2016,08,20,14,05,25.80
2016,08,20,14,06,25.80
2016,08,20,14,07,25.70
2016,08,20,14,08,25.60
2016,08,20,14,09,25.50
2016,08,20,14,10,25.50
2016,08,20,14,11,25.60
2016,08,20,14,12,25.70
2016,08,20,14,13,25.80
2016,08,20,14,14,25.80
2016,08,20,14,15,25.70
2016,08,20,14,16,25.50
2016,08,20,14,17,25.50
2016,08,20,14,18,25.60
2016,08,20,14,19,25.70
2016,08,20,14,20,25.80
2016,08,20,14,21,25.90
2016,08,20,14,22,25.90
2016,08,20,14,23,25.90
2016,08,20,14,24,25.80
2016,08,20,14,25,25.70
2016,08,20,14,26,25.60
2016,08,20,14,27,25.50
2016,08,20,14,28,25.40
2016,08,20,14,29,25.40
2016,08,20,14,30,25.30
2016,08,20,14,31,25.20
2016,08,20,14,32,25.20
2016,08,20,14,33,25.10
2016,08,20,14,34,25.10
2016,08,20,14,35,25.10
2016,08,20,14,36,25.00
2016,08,20,14,37,24.90
2016,08,20,14,38,24.90
2016,08,20,14,39,24.90
2016,08,20,14,40,24.80
2016,08,20,14,41,24.90
2016,08,20,14,42,24.80
2016,08,20,14,43,24.80
2016,08,20,14,44,24.80
2016,08,20,14,45,24.70
2016,08,20,14,46,24.70
2016,08,20,14,47,24.70
2016,08,20,14,48,24.80
2016,08,20,14,49,24.90
2016,08,20,14,50,24.80
2016,08,20,14,51,24.80
2016,08,20,14,52,24.80
2016,08,20,14,53,25.00
2016,08,20,14,54,25.10
2016,08,20,14,55,25.30
2016,08,20,14,56,25.40
2016,08,20,14,57,25.60
2016,08,20,14,58,25.60
2016,08,20,14,59,25.50
2016,08,20,15,00,25.40
2016,08,20,15,01,25.40
2016,08,20,15,02,25.30
2016,08,20,15,03,25.30
2016,08,20,15,04,25.30
2016,08,20,15,05,25.20
2016,08,20,15,06,25.30
2016,08,20,15,07,25.30
2016,08,20,15,08,25.40
2016,08,20,15,09,25.60
2016,08,20,15,10,25.70
2016,08,20,15,11,25.80
2016,08,20,15,12,25.90
2016,08,20,15,13,25.90
2016,08,20,15,14,25.90
2016,08,20,15,15,25.80
2016,08,20,15,16,25.70
2016,08,20,15,17,25.60
2016,08,20,15,18,25.60
2016,08,20,15,19,25.60
2016,08,20,15,20,25.60
2016,08,20,15,21,25.70
2016,08,20,15,22,25.60
2016,08,20,15,23,25.60
2016,08,20,15,24,25.50
2016,08,20,15,25,25.40
2016,08,20,15,26,25.30
2016,08,20,15,27,25.20
2016,08,20,15,28,25.20
2016,08,20,15,29,25.00
2016,08,20,15,30,24.90
2016,08,20,15,31,24.90
2016,08,20,15,32,24.90
2016,08,20,15,33,24.90
2016,08,20,15,34,24.80
2016,08,20,15,35,24.80
2016,08,20,15,36,24.80
2016,08,20,15,37,24.90
2016,08,20,15,38,24.90
2016,08,20,15,39,24.90
2016,08,20,15,40,25.00
2016,08,20,15,41,25.00
2016,08,20,15,42,25.10
2016,08,20,15,43,25.20
2016,08,20,15,44,25.30
2016,08,20,15,45,25.40
2016,08,20,15,46,25.50
2016,08,20,15,47,25.50
2016,08,20,15,48,25.60
2016,08,20,15,49,25.50
2016,08,20,15,50,25.50
2016,08,20,15,51,25.40
2016,08,20,15,52,25.40
2016,08,20,15,53,25.30
2016,08,20,15,54,25.30
2016,08,20,15,55,25.30
2016,08,20,15,56,25.30
2016,08,20,15,57,25.40
2016,08,20,15,58,25.50
2016,08,20,15,59,25.50
2016,08,20,16,00,25.50
2016,08,20,16,01,25.50
2016,08,20,16,02,25.40
2016,08,20,16,03,25.40
2016,08,20,16,04,25.50
2016,08,20,16,05,25.50
2016,08,20,16,06,25.40
2016,08,20,16,07,25.40
2016,08,20,16,08,25.40
2016,08,20,16,09,25.30
2016,08,20,16,10,25.20
2016,08,20,16,11,25.20
2016,08,20,16,12,25.20
2016,08,20,16,13,25.10
2016,08,20,16,14,25.00
2016,08,20,16,15,24.90
2016,08,20,16,16,24.80
2016,08,20,16,17,24.80
2016,08,20,16,18,24.90
2016,08,20,16,19,24.90
2016,08,20,16,20,25.00
2016,08,20,16,21,25.20
2016,08,20,16,22,25.30
2016,08,20,16,23,25.30
2016,08,20,16,24,25.30
2016,08,20,16,25,25.30
2016,08,20,16,26,25.20
2016,08,20,16,27,25.10
2016,08,20,16,28,25.00
2016,08,20,16,29,24.90
2016,08,20,16,30,24.80
2016,08,20,16,31,24.80
2016,08,20,16,32,24.90
2016,08,20,16,33,24.90
2016,08,20,16,34,25.00
2016,08,20,16,35,25.10
2016,08,20,16,36,25.20
2016,08,20,16,37,25.30
2016,08,20,16,38,25.40
2016,08,20,16,39,25.50
2016,08,20,16,40,25.70
2016,08,20,16,41,25.90
2016,08,20,16,42,26.00
2016,08,20,16,43,26.10
2016,08,20,16,44,26.30
2016,08,20,16,45,26.30
2016,08,20,16,46,26.30
2016,08,20,16,47,26.40
2016,08,20,16,48,26.40
2016,08,20,16,49,26.40
2016,08,20,16,50,26.50
2016,08,20,16,51,26.50
2016,08,20,16,52,26.60
2016,08,20,16,53,26.70
2016,08,20,16,54,26.90
2016,08,20,16,55,26.90
2016,08,20,16,56,27.00
2016,08,20,16,57,27.00
2016,08,20,16,58,26.90
2016,08,20,16,59,26.90
2016,08,20,17,00,27.00
2016,08,20,17,01,27.10
2016,08,20,17,02,27.10
2016,08,20,17,03,27.00
2016,08,20,17,04,27.00
2016,08,20,17,05,27.10
2016,08,20,17,06,27.20
2016,08,20,17,07,27.20
2016,08,20,17,08,27.30
2016,08,20,17,09,27.30
2016,08,20,17,10,27.20
2016,08,20,17,11,27.30
2016,08,20,17,12,27.30
2016,08,20,17,13,27.20
2016,08,20,17,14,27.20
2016,08,20,17,15,27.10
2016,08,20,17,16,27.00
2016,08,20,17,17,26.90
2016,08,20,17,18,26.80
2016,08,20,17,19,26.80